Home   Weather   Bissau   Past weeks
Flag for Guinea-Bissau

Past Weather in Bissau, Guinea-Bissau — Yesterday and Last 2 Weeks

Now
90 °F

Sunny.


Feels Like: 93 °F
Forecast: 91 / 74 °F
Wind: 5 mph from Southwest

Location: Bissau Aeroport

Current Time: Jun 16, 2019 at 12:52:50 pm

Latest Report: Jun 16, 2019 at 12:00 pm


Visibility: 10 mi

Pressure: 29.98 "Hg

Humidity: 49%

Dew Point: 68 °F

Location of BissauLocation

Past Weather in Bissau — Graph

°F

Bissau Temperature Yesterday

Maximum temperature yesterday: 93 °F (at 2:00 pm)
Minimum temperature yesterday: 75 °F (at 5:00 am)
Average temperature yesterday: 83 °F

High & Low Weather Summary for the Past Weeks

 TemperatureHumidityPressure
High97 °F (Jun 2, 4:00 pm)100% (Jun 9, 7:00 am)29.98 "Hg (Jun 9, 7:00 am)
Low72 °F (Jun 3, 5:00 am)34% (Jun 2, 3:00 pm)29.74 "Hg (Jun 2, 6:00 pm)
Average83 °F68%29.90 "Hg
* Reported Jun 1 11:00 am — Jun 16 11:00 am, Bissau. Weather by CustomWeather, © 2019

Note: Actual official high and low records may vary slightly from our data, if they occured in-between our weather recording intervals... More about our weather records

Advertising

Bissau Weather History for the Previous 24 Hours

Scroll right to see more
 ConditionsComfort  
Time TempWeatherWind HumidityBarometerVisibility
11:00 am
Sun, Jun 16
88 °FSunny.9 mph59%29.98 "Hg10 mi
10:00 am84 °FSunny.9 mph66%29.98 "Hg10 mi
9:00 am81 °FPassing clouds.5 mph79%29.95 "HgN/A
8:00 am77 °FClear.7 mph89%29.95 "Hg6 mi
7:00 am75 °FSunny.7 mph89%29.95 "Hg10 mi
11:00 pm
Sat, Jun 15
79 °FClear.5 mph79%29.95 "Hg10 mi
10:00 pm79 °FClear.5 mph79%29.95 "Hg10 mi
9:00 pm81 °FClear.3 mph74%29.92 "Hg10 mi
8:00 pm84 °FClear.3 mph55%29.92 "Hg10 mi
7:00 pm88 °FSunny.3 mph40%29.89 "Hg10 mi
6:00 pm91 °FPassing clouds.9 mph36%29.89 "HgN/A
5:00 pm91 °FSunny.8 mph41%29.86 "Hg10 mi
4:00 pm91 °FSunny.9 mph49%29.89 "Hg10 mi
3:00 pm91 °FSunny.9 mph38%29.89 "Hg10 mi
2:00 pm93 °FSunny.2 mph34%29.89 "Hg10 mi
1:00 pm91 °FSunny.8 mph41%29.92 "Hg10 mi
12:00 pm88 °FSunny.5 mph49%29.95 "Hg10 mi
Weather by CustomWeather, © 2019

See weather overview